Location: Newark
(49.8969°N, 3.3422°E)
Time: 09:35:27
(UTC+00:00)

A-11 Canister half - Pass Details

Date: 04 February 2020
Orbit: 1517 x 1683 km, 47.2° (Epoch: 22 February)

Event Time Altitude Azimuth Distance (km) Brightness Sun altitude
Rises 01:05:05 0° 279° (W) 4,727 - -54.1°
Reaches altitude 10° 01:08:12 10° 277° (W) 3,725 - -53.8°
Maximum altitude 01:17:25 66° 198° (SSW) 1,635 - -53.1°
Drops below altitude 10° 01:26:32 10° 119° (ESE) 3,676 - -52.3°
Exits shadow 01:29:08 - 117° (ESE) 4,518 11.5 -52.0°
Sets 01:29:35 0° 116° (ESE) 4,662 11.6 -52.0°
